Location: Bonnie Doon (historical)
(38.4275°N, 99.7521°W)
Time: 01:56:07
(UTC+00:00)

Daily predictions for brighter satellites

Satellite Brightness Start Highest point End
(mag) Time Altitude Azimuth Time Altitude Azimuth Time Altitude Azimuth
Meteor 1-20 Rocket 4.3 02:03:02 10° N 02:08:31 58° E 02:13:52 10° SSE
Ariane Rocket 3.9 02:06:35 10° SE 02:11:00 32° ENE 02:15:28 10° N
MOS 1-B Rocket 4.2 02:04:30 10° NNE 02:11:10 55° E 02:16:56 10° S
OAO 3 Rocket 3.7 02:08:16 10° SW 02:12:36 39° SSE 02:16:56 10° E
CZ-2C R/B 3.1 02:12:11 10° S 02:14:08 13° SSE 02:16:02 10° SE
Cosmos 1782 3.2 02:12:04 10° SSE 02:15:51 43° E 02:19:39 10° NNE
CZ-4 R/B 4.0 02:15:19 10° SW 02:18:23 21° W 02:21:26 10° NW
Cosmos 1386 Rocket 4.5 02:12:37 10° N 02:18:43 79° E 02:24:53 10° S
Cosmos 1933 3.5 02:16:21 10° S 02:20:22 80° W 02:24:24 10° N
USA 308 4.3 02:16:51 10° NNW 02:20:39 30° NNE 02:24:27 10° E
Okean-O 4.5 02:17:56 10° SSW 02:21:54 32° W 02:25:53 10° NNW
Helios 1A Rocket 3.2 02:19:15 10° S 02:23:22 72° WSW 02:27:30 10° NNW
SJ-6B 2.8 02:24:42 10° SSE 02:28:36 74° ENE 02:32:37 10° N
Cosmos 1833 Rocket 3.3 02:23:18 10° N 02:28:37 40° ENE 02:33:40 11° SE
Tianhe-1 1.0 02:25:36 10° WSW 02:28:42 72° SSE 02:31:50 10° ENE
ERS-2 2.8 02:27:07 10° N 02:30:42 59° WNW 02:34:15 10° SSW
Delta 2 Rocket 3.9 02:29:59 10° W 02:35:22 65° S 02:40:10 10° E
IRS-1A Rocket 4.4 02:35:04 10° SSE 02:40:48 68° ENE 02:46:39 10° N
Cosmos 1745 Rocket 4.5 02:38:51 10° NNW 02:44:55 62° W 02:50:55 10° S
Cosmos 1515 Rocket 4.0 02:42:00 10° SSE 02:46:08 42° E 02:50:16 10° NNE
Cosmos 1709 Rocket 3.9 02:40:31 10° N 02:46:38 77° E 02:52:46 10° S
CZ-4C R/B 3.1 02:43:08 10° NNW 02:50:42 81° ENE 02:58:08 15° SE
OBJECT-B 1.8 02:48:07 10° S 02:51:14 45° W 02:54:22 10° NNW
ATLAS 2AS CENTAUR R/B 4.1 02:45:10 10° NNW 02:51:19 28° NE 02:56:47 11° E
Cosmos 1633 Rocket 3.1 02:48:45 10° N 02:53:11 89° W 02:57:35 10° S
Resurs 01 Rocket 2.1 02:51:46 17° SE 02:54:54 44° ENE 02:59:07 10° N
CREW DRAGON DEMO-1 DEB 2.7 02:52:40 10° NW 02:55:15 55° NE 02:56:24 27° ESE
Cosmos 1328 Rocket 3.7 02:52:21 10° S 02:56:46 76° W 03:01:10 10° N
Meteor 1-5 Rocket 4.5 02:52:21 10° N 02:57:28 46° ENE 03:01:04 18° SE
USA 305 3.2 02:54:04 10° NW 02:58:17 59° NE 03:00:59 21° ESE
ISS -2.8 03:00:13 10° WSW 03:03:30 51° NW 03:06:47 10° NE
BREEZE-M DEB (TANK) 3.0 02:56:09 10° NW 03:04:01 85° SW 03:05:39 26° SE
Cosmos 1271 Rocket 3.1 03:04:50 19° SSE 03:07:25 47° E 03:11:16 10° NNE
BREEZE-M DEB (TANK) 4.5 03:07:17 10° WSW 03:09:03 16° SSW 03:10:58 12° S
Cosmos 1470 Rocket 3.5 03:06:24 10° N 03:10:54 80° E 03:14:02 19° SSE
SPOT 1/Viking Rocket 4.2 03:10:17 22° ESE 03:12:59 38° ENE 03:17:45 10° N
USA 306 2.8 03:13:44 10° NW 03:18:01 85° NE 03:19:56 32° SE
Spot 2 Rocket 4.5 03:16:03 23° ESE 03:18:08 31° ENE 03:22:31 10° N
Cosmos 1937 Rocket 4.4 03:17:19 25° ESE 03:18:08 26° E 03:22:21 10° NE
Landsat 7 3.9 03:16:19 25° SSE 03:19:00 64° ENE 03:23:43 10° N
Cosmos 2082 Rocket 2.4 03:14:42 10° NNW 03:20:12 54° ENE 03:23:07 27° SE
deb Kosmos-1763 3.9 03:17:10 10° NNW 03:20:43 79° WSW 03:22:10 33° S
SPOT 5 4.5 03:19:19 19° E 03:21:12 23° ENE 03:25:14 10° NNE
Cosmos 1943 Rocket 2.9 03:20:43 26° SE 03:22:23 31° ESE 03:27:15 10° NE
Cosmos 1538 Rocket 4.0 03:17:42 10° NNW 03:23:03 86° WSW 03:26:18 24° SSE
CZ-2C R/B 3.7 03:18:33 10° NNE 03:23:05 66° ESE 03:26:18 19° S
SJ 16-02 2.2 03:19:01 10° SSW 03:23:20 53° WNW 03:27:41 10° N
Cosmos 1933 Rocket 3.5 03:20:15 10° N 03:24:35 72° E 03:26:36 31° SSE
IGS 5A 3.4 03:23:41 28° SSE 03:25:48 88° ENE 03:29:57 10° NNW
Cosmos 1666 2.5 03:24:05 10° N 03:27:48 71° E 03:28:55 42° SSE
USA 267 4.1 03:24:21 16° S 03:29:05 40° SW 03:35:11 10° WNW
SPOT 3 Rocket 3.5 03:26:11 24° SSE 03:29:22 90° WSW 03:34:33 10° NNW
Meteor 1-10 Rocket 4.1 03:24:40 11° S 03:29:59 84° E 03:35:41 10° N
Milstar 3 4.3 03:12:41 10° WSW 03:30:01 53° S 03:36:29 23° ESE
Cosmos 1812 3.8 03:27:57 10° SSW 03:31:38 44° W 03:35:21 10° N
GPS 2-04 Rocket1 3.4 03:28:17 10° W 03:32:09 38° SSW 03:32:44 36° S
Cosmos 1680 Rocket 4.2 03:32:06 10° N 03:37:07 40° ENE 03:38:49 31° ESE
Cosmos 2278 Rocket 4.0 03:35:39 10° WSW 03:40:39 32° WNW 03:45:42 10° N
ARIANE 5 R/B 3.1 03:40:24 38° ESE 03:41:13 43° ENE 03:45:20 10° N
DNEPR-1 R/B 4.1 03:35:48 10° SSW 03:42:12 72° ESE 03:47:27 10° NE
COSMOS 2406 3.9 03:37:31 10° NW 03:42:56 47° WSW 03:46:28 21° S
Cosmos 2369 Rocket 3.4 03:45:39 24° E 03:45:39 24° E 03:49:21 10° NE
USA 245 4.3 03:47:33 22° N 03:47:33 22° N 03:48:35 10° N
USA 307 3.2 03:42:42 10° NW 03:46:53 57° SW 03:47:45 46° S
CZ-2C R/B 3.0 03:49:40 10° SW 03:51:05 19° SW 03:51:05 19° SW
Iridium 4 Rocket 3.9 03:51:25 24° S 03:55:08 77° W 04:01:05 10° N
OAO 3 Rocket 3.1 03:51:13 10° WSW 03:55:46 57° S 03:56:03 56° SSE
Cosmos 1743 4.0 03:56:36 10° NNE 03:59:21 28° ENE 03:59:21 28° ENE
USA 308 3.5 03:56:40 10° WNW 04:00:43 42° SW 04:01:07 41° SSW
Cosmos 990 Rocket 4.3 03:57:05 13° SSW 04:01:47 67° WNW 04:07:01 10° NNE
Tianhe-1 2.2 04:02:20 10° W 04:05:02 44° NNW 04:05:02 44° NNW
Cosmos 1898 Rocket 3.6 04:02:16 23° SSW 04:05:40 78° WNW 04:11:02 10° NNE
Cosmos 44 3.5 04:03:17 10° NNW 04:08:39 68° ENE 04:09:37 55° ESE
Cosmos 1833 Rocket 4.4 04:07:42 10° NW 04:12:16 26° WSW 04:15:22 16° SW
Cosmos 2327 Rocket 4.5 04:07:06 10° N 04:13:33 87° E 04:15:45 45° S
Cosmos 923 Rocket 4.2 04:10:13 10° NNW 04:15:27 67° WSW 04:16:42 50° SSW
SL-24 R/B - RUBIN 2 3.7 04:11:47 10° NNW 04:17:03 76° ENE 04:17:29 70° ESE
Cosmos 1461 3.4 04:14:54 25° SW 04:17:35 68° WNW 04:22:14 10° NNE
Delta 2 Rocket 4.2 04:12:43 10° W 04:16:58 45° SW 04:16:58 45° SW
Meteor 1-27 Rocket 4.2 04:14:11 24° SSW 04:17:43 62° W 04:23:37 10° N
H-2A R/B 4.1 04:15:05 10° NNE 04:18:12 44° NE 04:18:12 44° NE
Cosmos 1818 3.8 04:15:04 10° NNW 04:20:28 55° NE 04:21:18 49° E
Cosmos 1340 Rocket 3.1 04:19:10 10° N 04:22:43 65° N 04:22:43 65° N
Terra 1.9 04:26:40 64° ENE 04:26:40 64° ENE 04:31:22 10° N
NOSS 3-4 (A) 4.4 04:22:32 10° NW 04:29:30 50° WSW 04:32:22 35° SSW
NOSS 3-4 (C) 4.4 04:22:39 10° NW 04:29:37 51° WSW 04:32:27 36° SSW
ERBS 4.3 04:26:44 10° NNW 04:28:43 26° N 04:28:43 26° N
Resurs 01 Rocket 4.1 04:29:20 11° SW 04:31:34 15° W 04:34:13 10° NW
Meteor 1-19 Rocket 4.2 04:32:38 56° E 04:32:38 56° E 04:37:40 10° NNE
Cosmos 1869 Rocket 4.4 04:30:28 10° NNW 04:34:34 43° W 04:34:51 42° WSW
Cosmos 2154 Rocket 4.4 04:32:01 10° NNW 04:38:09 57° W 04:40:12 39° SSW
ISS -0.4 04:39:19 10° NW 04:40:56 13° NNW 04:42:33 10° NNE
Cosmos 962 Rocket 4.3 04:36:22 10° N 04:42:32 89° E 04:43:26 67° S
ATLAS 2AS CENTAUR R/B 2.7 04:35:45 10° NW 04:42:53 68° WSW 04:44:13 55° S
Gbstr 26 Del rocket 4.2 04:39:25 10° NW 04:46:50 67° NE 04:48:21 52° E
Cosmos 1707 Rocket 4.3 04:47:16 48° W 04:47:18 48° W 04:51:35 10° N
Cosmos 1536 4.3 04:43:57 10° NNW 04:47:17 31° W 04:47:17 31° W
ERS-1 Rocket 3.4 04:49:23 51° WSW 04:49:39 51° W 04:54:33 10° NNW
SPOT 5 3.8 04:58:33 43° WSW 04:58:53 43° W 05:03:57 10° NNW
Cosmos 2082 Rocket 4.1 05:00:00 10° WNW 05:03:47 19° W 05:04:58 18° WSW
Cosmos 1607 4.0 05:02:42 61° SW 05:03:58 84° WNW 05:10:30 10° NNE
Cosmos 1975 4.5 05:01:56 10° N 05:04:07 31° N 05:04:07 31° N
Cosmos 1943 Rocket 3.6 05:02:07 16° WSW 05:06:01 34° WNW 05:11:06 10° N
Cosmos 1867 3.9 05:10:57 60° W 05:11:24 63° WNW 05:16:50 10° NNE
Cosmos 1238 Rocket 3.8 05:08:12 10° NNW 05:13:06 58° WNW 05:13:06 58° WNW
Cosmos 1656 Rocket 3.8 05:15:24 69° NNE 05:15:24 69° NNE 05:20:14 10° NNE
Cosmos 2181 Rocket 4.1 05:15:25 61° WSW 05:16:05 65° W 05:22:10 10° N
Cosmos 2366 rocket 3.8 05:11:23 10° N 05:17:36 88° W 05:17:43 86° SW
RESURS DK-1 4.1 05:14:39 10° NNW 05:17:05 30° N 05:17:05 30° N
Cosmos 1733 Rocket 4.4 05:14:53 10° NNW 05:17:52 35° NW 05:17:52 35° NW
Cosmos 489 Rocket 4.5 05:14:58 10° NNW 05:21:12 69° WSW 05:21:15 69° WSW
Lacrosse 5 3.6 05:30:50 24° NE 05:30:50 24° NE 05:32:49 10° NE
Cosmos 2369 Rocket 3.1 05:27:21 37° W 05:28:35 42° WNW 05:33:57 10° N
Nadezhda 3 Rocket 4.0 05:58:32 76° N 05:58:32 76° N 06:04:13 10° N
Terra 4.4 06:05:33 12° W 06:05:33 12° W 06:06:35 10° WNW
ATLAS CENTAUR R/B 4.0 06:10:40 15° NNW 06:10:40 15° NNW 06:12:15 10° N
Cosmos 44 Rocket 4.4 06:05:57 10° NNW 06:09:39 45° N 06:09:39 45° N
Cosmos 2297 Rocket 4.2 06:20:35 10° N 06:24:38 20° NE 06:26:13 18° ENE
Cosmos 1934 Rocket 4.3 06:46:26 10° NNW 06:51:30 56° NW 06:51:30 56° NW
Resurs 1-4 Rocket 4.1 07:02:47 10° NE 07:05:43 18° E 07:05:43 18° E
CZ-2D R/B 4.0 07:06:40 10° NE 07:09:57 19° E 07:09:57 19° E
Lacrosse 5 3.8 07:09:58 22° NW 07:11:08 24° NNW 07:15:16 10° NNE
SeaSat 1 3.3 07:07:35 10° NNE 07:11:03 46° NNE 07:11:03 46° NNE
Cosmos 2219 4.1 07:09:10 10° N 07:14:34 41° ENE 07:15:05 40° ENE
Cosmos 1727 Rocket 4.0 07:27:55 74° NW 07:27:55 74° NW 07:33:57 10° N
Cosmos 2251 Rocket 4.1 07:27:44 10° NNW 07:32:09 55° NNE 07:32:09 55° NNE
Cosmos 1697 Rocket 3.2 07:36:33 53° ENE 07:36:33 53° ENE 07:41:15 10° NNE
Cosmos 2360 4.5 07:48:04 61° E 07:48:04 61° E 07:53:16 10° NNE
Cosmos 1980 Rocket 3.1 07:50:03 39° E 07:50:03 39° E 07:55:03 10° NE
Cosmos 1953 4.1 07:46:21 10° N 07:48:47 30° NE 07:48:47 30° NE
SL-16 R/B 3.4 07:49:05 32° ESE 07:51:22 45° ENE 07:57:16 10° N
USA 281 3.8 07:49:56 31° ESE 07:52:51 54° ENE 07:59:14 10° NNW
Cosmos 1459 Rocket 3.8 07:49:57 10° N 07:56:11 89° E 07:56:17 87° SSE
ISS -0.4 08:00:11 - E 08:00:11 - E 07:54:23 10° NNW
Cosmos 1975 Rocket 4.2 07:59:58 40° N 07:59:58 40° N 08:02:49 10° N
COSMOS 2455 3.5 07:52:53 10° NW 07:57:15 44° WNW 07:57:15 44° WNW
Cosmos 1725 Rocket 4.5 07:52:51 10° N 07:58:56 53° E 08:00:20 44° ESE
In-Cosmos 22 4.3 08:01:38 68° NW 08:01:38 68° NW 08:06:39 10° N
USA 215 3.5 07:55:37 10° ESE 08:02:04 66° NE 08:08:32 10° NW
Helios 1B rocket 3.8 07:58:24 10° NNE 08:01:13 36° NE 08:01:13 36° NE
Cosmos 2227 Rocket 2.2 08:01:22 10° NNW 08:06:35 76° NW 08:06:35 76° NW
Cosmos 371 Rocket 4.4 08:09:25 36° NW 08:09:25 36° NW 08:13:15 10° N
Cosmos 2297 Rocket 2.6 08:03:31 10° NNW 08:07:58 50° WNW 08:07:58 50° WNW
Cosmos 1025 Rocket 3.8 08:11:43 51° NNE 08:11:43 51° NNE 08:15:07 10° NNE
Cosmos 2016 Rocket 3.9 08:04:35 10° N 08:10:49 78° E 08:11:39 66° SE
Atlas Centaur 2 4.0 08:15:38 27° SE 08:15:38 27° SE 08:20:24 10° ESE
Cosmos 407 Rocket 4.0 08:08:57 10° N 08:14:15 58° ENE 08:15:12 50° ESE
Lacrosse 4 Rocket 2.3 08:15:37 48° N 08:15:37 48° N 08:19:02 10° NNE
Cosmos 332 Rocket 4.4 08:15:36 50° NW 08:15:36 50° NW 08:19:42 10° N
Cosmos 2173 Rocket 4.0 08:10:10 10° NNW 08:16:17 62° W 08:16:22 62° W
Cosmos 2369 3.6 08:17:47 81° W 08:17:56 82° WNW 08:23:42 10° NNE
Cosmos 2278 3.9 08:17:44 58° SE 08:18:06 59° ESE 08:23:42 10° NNE
ARGOS Delta rocket 4.3 08:17:28 10° NNE 08:22:11 53° E 08:22:26 52° ESE
Cosmos 2082 3.9 08:19:14 10° NNW 08:24:56 70° ENE 08:26:36 46° SE
Cosmos 1624 Rocket 3.9 08:25:57 81° SE 08:26:04 82° ESE 08:31:26 10° NNE
ADEOS II 2.8 08:21:16 10° NNE 08:26:17 44° E 08:27:11 41° SE
Cosmos 1340 4.4 08:27:17 27° E 08:27:17 27° E 08:30:07 10° NNE
SL-16 R/B 4.0 08:27:41 18° SE 08:29:42 22° E 08:33:55 10° NE
Cosmos 2061 Rocket 3.9 08:28:19 10° N 08:34:40 73° W 08:35:47 60° SSW
Timation 2 Rocket 4.3 08:29:33 10° NW 08:34:31 45° W 08:34:31 45° W
Cosmos 2285 Rocket 4.0 08:34:24 59° S 08:35:45 84° ESE 08:42:13 10° NNE
Cosmos 1023 Rocket 4.4 08:35:42 10° NNW 08:40:58 88° WSW 08:41:37 70° S
APEX 3.9 08:36:31 10° NNW 08:41:27 72° WSW 08:41:47 70° SW
AQUA 3.6 08:37:21 10° NNE 08:42:08 87° WNW 08:42:17 84° SW
IRS P6 4.5 08:40:45 10° NNE 08:46:03 86° ESE 08:46:53 64° S
Resurs 1-4 Rocket 2.3 08:41:19 10° N 08:46:24 51° WNW 08:46:48 50° W
Cosmos 2056 Rocket 3.5 08:48:11 61° W 08:48:32 62° WNW 08:53:36 10° NNE
CZ-2D R/B 2.4 08:45:36 10° N 08:50:44 48° WNW 08:51:16 47° W
Cosmos 2123 Rocket 4.4 08:50:53 42° WSW 08:51:46 45° WNW 08:57:43 10° N
Cosmos 2322 Rocket 3.8 08:51:53 18° SE 08:54:42 28° ESE 08:59:26 10° NE
Cosmos 1544 Rocket 4.2 08:50:42 10° NNW 08:54:09 42° WNW 08:54:09 42° WNW
UNK 4.1 08:56:16 49° WNW 08:56:16 49° WNW 09:00:13 10° NNW
Aureole 2 Rocket 4.3 08:54:02 10° N 08:55:34 22° NE 08:55:34 22° NE
Cosmos 2263 Rocket 3.4 08:51:13 10° N 08:56:35 42° ENE 09:01:56 10° SE
NPP 3.9 08:52:35 10° N 08:57:48 52° WNW 08:58:39 47° WSW
Landsat 4 4.1 08:55:43 10° N 08:58:56 55° NW 08:58:56 55° NW
Cosmos 1140 Rocket 3.4 08:54:53 10° NNW 09:00:02 60° WSW 09:00:28 58° SW
BREEZE-M DEB (TANK) 2.3 09:01:10 65° NNW 09:01:10 65° NNW 09:03:27 10° NE
Cosmos 1626 3.9 09:09:46 21° NW 09:09:46 21° NW 09:11:47 10° NNW
Cosmos 1536 Rocket 4.1 09:12:04 42° W 09:12:06 42° W 09:16:20 10° N
Cosmos 2360 Rocket 4.1 09:11:01 10° SSE 09:15:20 23° E 09:19:41 10° NE
Meteor 1-24 Rocket 3.6 09:16:02 42° SSW 09:17:56 76° W 09:23:21 10° N
IRS-1D 3.6 09:14:43 10° N 09:20:03 71° WNW 09:21:57 40° SW
Cosmos 1697 Rocket 4.4 09:18:16 17° WNW 09:20:06 20° NW 09:24:08 10° N
MSX 4.3 09:17:57 10° NNE 09:23:40 57° E 09:27:41 20° S
ADEOS Rocket 3.5 09:17:05 12° SSE 09:24:04 84° WSW 09:31:55 10° NNW
NOSS 3-2 (A) 3.3 09:23:19 36° SSW 09:25:41 74° ESE 09:31:49 10° NE
Cosmos 220 Rocket 4.3 09:26:45 45° WSW 09:27:40 54° WNW 09:32:00 10° N
Cosmos 1980 Rocket 3.4 09:31:49 23° W 09:33:54 29° WNW 09:38:46 10° N
ISS -3.9 09:33:42 64° W 09:34:02 70° SW 09:37:22 10° SE
CZ-4B R/B 3.9 09:29:05 10° NNE 09:34:07 59° ESE 09:37:49 19° S
H-2A R/B 3.4 09:34:34 12° SSE 09:34:34 12° SSE 09:35:52 10° SE
GP-B 3.8 09:30:31 10° NNW 09:34:36 36° W 09:35:16 34° WSW
Centaur D-1AR AC-39 4.1 09:32:58 18° S 09:34:58 21° SSE 09:45:04 10° ESE
SL-16 R/B 3.4 09:34:10 26° WSW 09:35:05 27° W 09:40:18 10° NW
USA 281 4.1 09:36:46 26° WSW 09:37:34 27° WSW 09:42:58 10° NW
Cosmos 1513 Rocket 4.5 09:33:15 10° N 09:39:26 84° E 09:45:30 10° S
ARIANE 5 R/B 2.8 09:35:47 10° NNE 09:40:52 65° ESE 09:44:38 18° S
USA 238 DEB 3.7 09:37:30 25° SSW 09:41:28 74° ESE 09:48:14 10° NE
IRS-1C 4.1 09:36:12 10° NNE 09:41:34 85° ESE 09:45:08 22° SSW
USA 238 3.7 09:37:36 25° SSW 09:41:35 74° ESE 09:48:20 10° NE
IDEFIX/ARIANE 42P 2.6 09:36:20 10° N 09:41:35 72° WNW 09:44:30 27° SSW
OAO 2 Rocket 3.5 09:41:32 28° WSW 09:44:09 57° S 09:49:22 10° ESE
Cosmos 1300 3.9 09:41:54 10° NNW 09:44:54 26° W 09:44:54 26° W
USA 215 3.8 09:39:34 10° S 09:45:17 32° SW 09:51:02 10° WNW
Cosmos 1464 Rocket 4.0 09:41:18 10° N 09:47:31 89° E 09:53:46 10° S
Cosmos 2227 4.1 09:43:25 10° NNW 09:49:05 81° WSW 09:54:41 10° SSE
ATLAS 2A CENTAUR R/B 3.6 09:50:01 11° SSE 09:51:42 14° SE 09:55:01 10° ESE
CENTAUR R/B 2.4 09:48:53 23° SSW 09:52:34 79° ESE 09:59:17 10° NE
CZ-4C R/B 3.6 09:51:03 25° SSW 09:53:15 50° W 09:57:14 10° NNW
SL-08 R/B 3.5 09:52:26 10° SSE 09:57:05 73° ENE 10:01:43 10° N
Cosmos 2084 4.1 09:53:08 10° NNW 09:57:35 63° NE 10:02:06 10° SE
Cosmos 1455 2.4 09:55:14 10° N 09:59:05 72° E 10:02:55 10° SSE
Cosmos 2034 Rocket 4.1 09:53:31 10° N 09:59:53 79° E 10:06:08 10° S
ERS-1 4.5 09:54:58 10° NNE 10:00:07 83° WNW 10:04:19 16° SSW
CZ-2C R/B 3.6 09:55:15 10° NNE 10:00:11 44° E 10:05:06 10° S
Cosmos 405 4.0 09:58:13 10° NW 10:01:10 25° W 10:01:24 25° W
Atlas Centaur 2 3.3 09:58:11 21° SW 10:03:09 43° S 10:09:34 10° ESE
BREEZE-M DEB (TANK) 4.1 09:49:16 10° NW 10:04:16 74° SW 10:08:09 10° SE
ADEOS II 3.5 10:01:42 10° NNW 10:05:39 22° WNW 10:08:07 16° W
Meteor 2-10 Rocket 3.9 10:03:34 10° NNW 10:08:56 48° W 10:14:01 10° SSW
SL-16 R/B 2.6 10:09:33 19° SW 10:13:24 48° WNW 10:18:53 10° NNE
PAYLOAD A 4.1 10:11:35 10° NNE 10:16:16 66° ESE 10:20:56 10° S
Cosmos 1892 Rocket 4.1 10:14:43 19° SW 10:17:27 39° WNW 10:21:32 10° N
Cosmos 2333 Rocket 3.7 10:13:39 10° SSE 10:18:49 35° ESE 10:24:00 10° NE
Cosmos 1346 Rocket 3.6 10:17:21 19° SW 10:19:30 33° WNW 10:23:05 10° N
Cosmos 1331 Rocket 4.0 10:15:57 15° SSW 10:20:11 65° WNW 10:25:21 10° NNE
SL-8 R/B 4.5 10:20:28 13° SSW 10:24:20 43° SE 10:28:51 10° ENE
Aureole 1 Rocket 2.9 10:21:03 10° NNW 10:24:45 74° WSW 10:29:35 10° SSE
Cosmos 1703 3.2 10:23:13 10° SSW 10:26:58 65° W 10:30:50 10° N
Cosmos 2228 4.4 10:24:25 10° NW 10:27:36 20° W 10:29:52 14° SW
Cosmos 1328 3.8 10:32:28 10° S 10:36:29 83° W 10:40:28 10° N
SEDSat Delta rocket 4.1 10:31:51 13° WSW 10:36:29 38° S 10:41:04 10° ESE
Cosmos 389 Rocket 3.1 10:34:20 10° NNW 10:37:31 34° W 10:40:39 10° SSW
Cosmos 1484 Rocket 4.4 10:34:12 10° NNE 10:37:47 34° E 10:41:17 10° SSE
Cosmos 2322 Rocket 2.9 10:33:42 12° SW 10:38:31 39° WNW 10:43:50 10° N
Cosmos 2263 Rocket 3.2 10:35:41 10° NW 10:40:13 25° WSW 10:44:45 10° SSW
Cosmos 1844 Rocket 3.3 10:35:51 10° NNW 10:41:28 64° ENE 10:47:05 10° SSE
Cosmos 2058 Rocket 3.7 10:39:20 10° NNW 10:43:29 37° W 10:47:38 10° SSW
Okean 1-7 Rocket 4.4 10:40:44 10° SW 10:44:55 36° WNW 10:49:09 10° N
Spot 4 Rocket 4.4 10:43:08 10° N 10:48:03 47° WNW 10:52:57 10° SW
CZ-2C R/B 3.0 10:44:45 10° N 10:48:43 58° WNW 10:52:41 10° SSW
Meteor 2-1 Rocket 4.4 10:44:39 10° NNW 10:50:05 50° W 10:55:23 10° SSW
Meteor 1-11 4.5 10:47:27 10° S 10:53:15 81° E 10:59:01 10° N
NOSS 3-2 (C) 4.0 10:50:40 10° WSW 10:55:56 43° NW 11:01:56 10° NNE
Cosmos 2219 Rocket 2.7 10:51:30 10° S 10:57:05 65° ESE 11:02:43 10° NNE
Cosmos 2360 Rocket 2.7 10:53:33 10° SW 10:58:58 46° WNW 11:04:24 10° N
Cosmos 968 Rocket 4.4 10:55:33 10° N 11:00:35 54° ENE 11:05:34 10° SE
